Preview of NWS' New Version of Forecast
This preview is not operational and should not be used for support decisions.

Regional Weather Roundup (RWR)

Issued by National Weather Service (NWS)

                            
000
ASUS43 KBIS 212302
RWRND 

NORTH DAKOTA REGIONAL WEATHER ROUNDUP
NATIONAL WEATHER SERVICE BISMARCK ND
500 PM CST THU FEB 21 2019

NOTE: "FAIR" INDICATES FEW OR NO CLOUDS BELOW 12,000 FEET WITH NO
SIGNIFICANT WEATHER AND/OR OBSTRUCTIONS TO VISIBILITY.


NDZ001>003-009>011-017-220000-
NORTHWEST NORTH DAKOTA
  
CITY           SKY/WX    TMP DP  RH WIND       PRES   REMARKS
WILLISTON      CLOUDY     8   0  69 NW6       30.16R WCI  -2          
MINOT          SUNNY      8   0  69 NW9       30.14R WCI  -5          
$$
 
NDZ018>021-031>035-040>046-220000-
SOUTHWEST NORTH DAKOTA
  
CITY           SKY/WX    TMP DP  RH WIND       PRES   REMARKS
BISMARCK       SUNNY     15   6  67 W9        30.17R WCI   3          
DICKINSON      SUNNY     12   5  73 NW6       30.07R WCI   3          
GARRISON         N/A      7   1  76 NW10      30.12S WCI  -8          
HETTINGER ARPT SUNNY      7   2  80 W5        30.10R WCI  -2          
$$
 
NDZ004>008-012>016-024-026-027-054-220000-
NORTHEAST NORTH DAKOTA
  
CITY           SKY/WX    TMP DP  RH WIND       PRES   REMARKS
GRAND FORKS    CLOUDY    14   8  77 NE5       30.20R WCI   6          
GRND FRKS AFB  FLURRIES  16  10  78 E6        30.19R WCI   8          
DEVILS LAKE    LGT SNOW  12  10  92 W5        30.16S FOG     WCI   4  
$$
 
NDZ022-023-025-028>030-036>039-047>053-220000-
SOUTHEAST NORTH DAKOTA
  
CITY           SKY/WX    TMP DP  RH WIND       PRES   REMARKS
FARGO          CLOUDY    17  12  80 W6        30.20R WCI   9          
JAMESTOWN      CLOUDY    15   9  76 W6        30.15R WCI   6          
$$